Location: Lewisville
(33.0462°N, 96.9942°W)
Time: 21:28:08
(UTC-05:00)

Hubble Space Telescope - Pass Details

Date: 13 August 2020
Orbit: 536 x 540 km, 28.5° (Epoch: 22 October)

Event Time Altitude Azimuth Distance (km) Brightness Sun altitude
Exits shadow 05:03:41 38° 165° (SSE) 826 1.5 -20.8°
Drops below altitude 10° 05:07:21 10° 103° (ESE) 1,782 4.0 -20.2°
Sets 05:09:43 0° 95° (E) 2,674 5.1 -19.8°
